Location: Zagreb
(45.8000°N, 16.0000°E)
Time: 08:52:18
(UTC+02:00)

Courier 1B - Pass Details

Date: 12 August 2020
Orbit: 962 x 1209 km, 28.3° (Epoch: 27 September)

Event Time Altitude Azimuth Distance (km) Brightness Sun altitude
Rises 19:09:11 0° 225° (SW) 4,016 11.2 9.1°
Reaches altitude 10° 19:13:15 10° 206° (SSW) 3,010 10.3 8.4°
Maximum altitude 19:17:32 16° 170° (S) 2,511 9.5 7.6°
Drops below altitude 10° 19:21:40 10° 134° (SE) 2,904 9.5 6.9°
Sets 19:25:28 0° 114° (ESE) 3,808 9.9 6.3°
